Погода в Талламоре

Ирландия     53°16′15″N   7°29′34″W
темп.,
°C
ветер,
м/с
пор.,
м/с
влажн.,
%
обл.,
%
осадки,
мм/ч
давл.,
гПа
погр.,
м
22 января, сб
сб2200:00+5зюз2690100 0.0 1039183
03:00+5зюз2792100 0.0 1039207
06:00+5юз2688100 0.0 1038162
09:00+6юз2682100 0.0 1038157
12:00+8зюз2778100 0.0 1038337
15:00+9юз267760 0.0 1036428
18:00+4ююз22935 0.0 103722
21:00+3ююз229349 0.0 103722
23 января, вс
вс2300:00+2ю2194100 0.0 103615
03:00+1ююв229552 0.0 103422
06:000ю22964 0.0 103320
09:000ююв239650 0.0 103243
12:00+6ю26815 0.0 1031400
15:00+7ююз3879100 0.0 1030755
18:00+6ююз2782100 0.0 1030308
21:00+6ю2882100 0.0 1030284
24 января, пн
пн2400:00+7ю398298 0.0 1030235
03:00+7ююз2383100 0.0 103167
06:00+7ююз2383100 0.0 103162
09:00+7ююз2284100 0.0 103346
12:00+9зюз1282100 0.0 1035139
15:00+9юз1183100 0.0 1035131
18:00+8зюз119199 0.0 103611
21:00+7ююз1192100 0.0 103816
25 января, вт
вт2500:00+7юз1190100 0.0 103823
03:00+7юз1189100 0.0 103824
06:00+7юз1190100 0.0 103829
09:00+7юз2289100 0.0 103954
12:00+9юз2382100 0.0 1039228
15:00+9зюз2580100 0.0 1038436
18:00+5зюз2494100 0.0 103866
21:00+5ююз2395100 0.0 103853
26 января, ср
ср2600:00+4юз2396100 0.0 103854
03:00+4юз2396100 0.0 103668
06:00+3ююз229665 0.0 103534
09:00+3ююз2295100 0.0 103445
12:00+7ююз377827 0.0 1033478
15:00+8юз4979100 0.0 1030914
18:00+6ююз41182100 0.0 1028541
21:00+7ююз51479100 0.1 1027658